• în Republica Moldova
  • Lista ţărilor
  • Pe 7 zile
  • Temperatura apei
  • Hartă satelitară
  • Meteo pe hartă
  • Widget-uri
  • user-avatar
    Intrare

    Meteo pe oră la Malaya Kobylschina

    Astăzi, 24 Septembrie, Luni

    Timp Temperatura Precipitaţii Vânt Presiune Umiditate
    00:00 +7°C° 0 mm 3 m/s 736 mmHg 92%
    01:00 +6°C° 0 mm 2 m/s 736 mmHg 93%
    02:00 +6°C° 0 mm 2 m/s 735 mmHg 97%
    03:00 +6°C° 0 mm 2 m/s 735 mmHg 97%
    04:00 +6°C° 0 mm 2 m/s 735 mmHg 97%
    05:00 +6°C° 0 mm 2 m/s 735 mmHg 96%
    06:00 +6°C° 0.2 mm 2 m/s 734 mmHg 95%
    07:00 +7°C° 0.2 mm 3 m/s 734 mmHg 93%
    08:00 +8°C° 0 mm 3 m/s 734 mmHg 91%
    09:00 +8°C° 1.3 mm 3 m/s 733 mmHg 91%
    10:00 +7°C° 1.3 mm 4 m/s 733 mmHg 92%
    11:00 +7°C° 1.3 mm 4 m/s 732 mmHg 92%
    12:00 +7°C° 1.8 mm 4 m/s 731 mmHg 92%
    13:00 +7°C° 1.8 mm 5 m/s 730 mmHg 92%
    14:00 +6°C° 0 mm 4 m/s 729 mmHg 92%
    15:00 +6°C° 1.8 mm 4 m/s 728 mmHg 93%
    16:00 +6°C° 1.8 mm 4 m/s 727 mmHg 93%
    17:00 +6°C° 1.8 mm 4 m/s 726 mmHg 94%
    18:00 +6°C° 2.4 mm 5 m/s 726 mmHg 95%
    19:00 +6°C° 2.4 mm 5 m/s 726 mmHg 95%
    20:00 +6°C° 2.4 mm 5 m/s 725 mmHg 95%
    21:00 +6°C° 1.4 mm 5 m/s 725 mmHg 94%
    22:00 +4°C° 1.4 mm 6 m/s 726 mmHg 94%
    23:00 +4°C° 1.4 mm 6 m/s 726 mmHg 93%

    Mâine, 25 Septembrie, Marţi

    Timp Temperatura Precipitaţii Vânt Presiune Umiditate
    00:00 +5°C° 0.9 mm 6 m/s 726 mmHg 92%
    01:00 +5°C° 0.9 mm 6 m/s 727 mmHg 91%
    02:00 +5°C° 0.9 mm 7 m/s 728 mmHg 91%
    03:00 +5°C° 0.3 mm 7 m/s 728 mmHg 90%
    04:00 +4°C° 0.3 mm 7 m/s 729 mmHg 90%
    05:00 +4°C° 0.3 mm 7 m/s 730 mmHg 89%
    06:00 +4°C° 0.1 mm 7 m/s 731 mmHg 88%
    07:00 +4°C° 0.1 mm 6 m/s 731 mmHg 88%
    08:00 +4°C° 0.1 mm 6 m/s 732 mmHg 87%
    09:00 +4°C° 0 mm 6 m/s 733 mmHg 85%
    10:00 +5°C° 0 mm 6 m/s 734 mmHg 83%
    11:00 +5°C° 0 mm 6 m/s 735 mmHg 82%
    12:00 +5°C° 0 mm 6 m/s 736 mmHg 78%
    13:00 +7°C° 0 mm 6 m/s 736 mmHg 74%
    14:00 +7°C° 0 mm 6 m/s 737 mmHg 70%
    15:00 +7°C° 0 mm 5 m/s 738 mmHg 70%
    16:00 +7°C° 0 mm 4 m/s 738 mmHg 71%
    17:00 +6°C° 0 mm 4 m/s 739 mmHg 71%
    18:00 +6°C° 0 mm 4 m/s 739 mmHg 74%
    19:00 +5°C° 0 mm 4 m/s 740 mmHg 76%
    20:00 +4°C° 0 mm 4 m/s 741 mmHg 79%
    21:00 +3°C° 0 mm 4 m/s 742 mmHg 80%
    22:00 +3°C° 0 mm 4 m/s 742 mmHg 80%
    23:00 +3°C° 0 mm 4 m/s 743 mmHg 81%

    Poimâine, 26 Septembrie, Miercuri

    Timp Temperatura Precipitaţii Vânt Presiune Umiditate
    00:00 +1°C° 0 mm 4 m/s 744 mmHg 80%
    01:00 +1°C° 0 mm 4 m/s 744 mmHg 79%
    02:00 +1°C° 0 mm 3 m/s 745 mmHg 78%
    03:00 +1°C° 0 mm 3 m/s 745 mmHg 80%
    04:00 +1°C° 0 mm 3 m/s 746 mmHg 81%
    05:00 0°C° 0 mm 3 m/s 746 mmHg 82%
    06:00 +1°C° 0 mm 3 m/s 747 mmHg 80%
    07:00 +2°C° 0 mm 3 m/s 747 mmHg 77%
    08:00 +3°C° 0 mm 3 m/s 748 mmHg 75%
    09:00 +4°C° 0 mm 3 m/s 748 mmHg 71%
    10:00 +7°C° 0 mm 3 m/s 748 mmHg 66%
    11:00 +8°C° 0 mm 4 m/s 748 mmHg 62%
    12:00 +10°C° 0 mm 4 m/s 747 mmHg 59%
    13:00 +10°C° 0 mm 4 m/s 746 mmHg 56%
    14:00 +11°C° 0 mm 4 m/s 746 mmHg 52%
    15:00 +10°C° 0 mm 4 m/s 745 mmHg 56%
    16:00 +8°C° 0 mm 4 m/s 745 mmHg 59%
    17:00 +7°C° 0 mm 4 m/s 744 mmHg 63%
    18:00 +7°C° 0.1 mm 4 m/s 744 mmHg 66%
    19:00 +7°C° 0.1 mm 5 m/s 743 mmHg 68%
    20:00 +5°C° 0.1 mm 6 m/s 742 mmHg 71%
    21:00 +5°C° 0.8 mm 6 m/s 741 mmHg 77%
    22:00 +5°C° 0.8 mm 7 m/s 740 mmHg 83%
    23:00 +4°C° 0.8 mm 7 m/s 738 mmHg 89%

    27 Septembrie, Joi

    Timp Temperatura Precipitaţii Vânt Presiune Umiditate
    00:00 +4°C° 1.4 mm 7 m/s 737 mmHg 89%
    01:00 +5°C° 1.4 mm 8 m/s 736 mmHg 90%
    02:00 +5°C° 1.4 mm 8 m/s 735 mmHg 91%
    03:00 +5°C° 0.8 mm 7 m/s 734 mmHg 91%
    04:00 +5°C° 0.8 mm 7 m/s 734 mmHg 91%
    05:00 +7°C° 0.8 mm 6 m/s 733 mmHg 92%
    06:00 +7°C° 0.3 mm 6 m/s 733 mmHg 90%
    07:00 +7°C° 0.3 mm 5 m/s 733 mmHg 88%
    08:00 +8°C° 0.3 mm 5 m/s 734 mmHg 87%
    09:00 +8°C° 0.1 mm 6 m/s 734 mmHg 78%
    10:00 +9°C° 0.1 mm 6 m/s 734 mmHg 70%
    11:00 +10°C° 0.1 mm 7 m/s 734 mmHg 61%
    12:00 +10°C° 0 mm 7 m/s 735 mmHg 58%
    13:00 +10°C° 0 mm 7 m/s 735 mmHg 55%
    14:00 +11°C° 0 mm 7 m/s 735 mmHg 52%
    15:00 +10°C° 0 mm 6 m/s 736 mmHg 56%
    16:00 +9°C° 0 mm 5 m/s 736 mmHg 61%
    17:00 +8°C° 0 mm 4 m/s 736 mmHg 65%
    18:00 +7°C° 0 mm 4 m/s 737 mmHg 67%
    19:00 +7°C° 0 mm 4 m/s 737 mmHg 70%
    20:00 +7°C° 0 mm 3 m/s 737 mmHg 72%
    21:00 +5°C° 0 mm 3 m/s 737 mmHg 73%
    22:00 +5°C° 0 mm 3 m/s 738 mmHg 75%
    23:00 +5°C° 0 mm 3 m/s 738 mmHg 76%

    28 Septembrie, Vineri

    Timp Temperatura Precipitaţii Vânt Presiune Umiditate
    00:00 +4°C° 0 mm 3 m/s 738 mmHg 79%
    01:00 +4°C° 0 mm 3 m/s 737 mmHg 82%
    02:00 +3°C° 0 mm 3 m/s 737 mmHg 85%
    03:00 +4°C° 0.2 mm 3 m/s 736 mmHg 85%
    04:00 +5°C° 0.2 mm 4 m/s 735 mmHg 84%
    05:00 +5°C° 0.2 mm 4 m/s 734 mmHg 84%
    06:00 +7°C° 0.8 mm 6 m/s 732 mmHg 85%
    07:00 +9°C° 0.8 mm 7 m/s 731 mmHg 87%
    08:00 +11°C° 0.8 mm 9 m/s 729 mmHg 88%
    09:00 +11°C° 1 mm 8 m/s 729 mmHg 88%
    10:00 +11°C° 1 mm 8 m/s 729 mmHg 87%
    11:00 +11°C° 1 mm 8 m/s 729 mmHg 87%
    12:00 +10°C° 0.5 mm 7 m/s 730 mmHg 86%
    13:00 +8°C° 0.5 mm 7 m/s 731 mmHg 85%
    14:00 +7°C° 0.5 mm 6 m/s 732 mmHg 84%
    15:00 +6°C° 0 mm 5 m/s 734 mmHg 84%
    16:00 +6°C° 0 mm 4 m/s 735 mmHg 84%
    17:00 +5°C° 0 mm 3 m/s 737 mmHg 85%
    18:00 +4°C° 0 mm 3 m/s 738 mmHg 87%
    19:00 +3°C° 0 mm 3 m/s 739 mmHg 90%
    20:00 +3°C° 0 mm 2 m/s 739 mmHg 92%
    21:00 +3°C° 0 mm 2 m/s 740 mmHg 92%
    22:00 +2°C° 0 mm 2 m/s 740 mmHg 93%
    23:00 +2°C° 0 mm 2 m/s 741 mmHg 93%

    29 Septembrie, Sâmbătă

    Timp Temperatura Precipitaţii Vânt Presiune Umiditate
    00:00 +1°C° 0 mm 2 m/s 741 mmHg 93%
    01:00 +1°C° 0 mm 2 m/s 741 mmHg 93%
    02:00 +1°C° 0 mm 2 m/s 741 mmHg 93%
    03:00 +2°C° 0 mm 2 m/s 741 mmHg 93%
    04:00 +2°C° 0 mm 2 m/s 741 mmHg 94%
    05:00 +1°C° 0 mm 3 m/s 741 mmHg 94%
    06:00 +2°C° 0 mm 3 m/s 742 mmHg 92%
    07:00 +3°C° 0 mm 3 m/s 742 mmHg 91%
    08:00 +4°C° 0 mm 3 m/s 742 mmHg 90%
    09:00 +4°C° 0.1 mm 3 m/s 743 mmHg 87%
    10:00 +5°C° 0.1 mm 3 m/s 743 mmHg 85%
    11:00 +7°C° 0.1 mm 3 m/s 744 mmHg 83%
    12:00 +7°C° 0.1 mm 3 m/s 744 mmHg 78%
    13:00 +7°C° 0.1 mm 3 m/s 744 mmHg 73%
    14:00 +8°C° 0.1 mm 3 m/s 744 mmHg 68%
    15:00 +7°C° 0 mm 2 m/s 744 mmHg 69%
    16:00 +6°C° 0 mm 2 m/s 745 mmHg 70%
    17:00 +5°C° 0 mm 2 m/s 745 mmHg 71%
    18:00 +5°C° 0 mm 1 m/s 745 mmHg 73%
    19:00 +4°C° 0 mm 1 m/s 746 mmHg 74%
    20:00 +3°C° 0 mm 1 m/s 746 mmHg 76%
    21:00 +2°C° 0 mm 1 m/s 747 mmHg 76%
    22:00 +2°C° 0 mm 1 m/s 747 mmHg 77%
    23:00 +1°C° 0 mm 0 m/s 747 mmHg 77%
    Arată mai mult